THOR ABLESTAR DEB, 48824

Orbit data source: Space-Track

THOR ABLESTAR DEB, 48824 is space debris in LEO originally from a launch on Thu, 29 Jun 1961 UTC launched from the Air Force Eastern Test Range (AFETR). Debris objects in space refer to the collection of defunct objects orbiting the Earth. Examples of debris include non-operational satellites, rocket bodies, and fragments generated from explosions, collisions, or faulty payload assembly.

Loading next visibility...
Identifier
48824, 1961-015NC
Orbit
LEO
Country
Flag of USUS
Related business
Manufacturer
Unknown
Mission
Spacecraft
Bus & Motor
Unknown
Mass
Unknown
Launch date (UTC)
1961-06-29 (65 years ago)
Launch vehicle
Unknown
Launch site
Air Force Eastern Test Range (AFETR)
Object type
Payload
Rocket body
Debris
Shape & HBR
Unknown shape, 0.065 m
Radar Cross Section
Medium (>0.1 m² and <1 m²)

Expand to show TLE details & history
Last TLE update: 11 hours ago

TLE from 11 hours ago
0 THOR ABLESTAR DEB
1 48824U 61015NC  26267.05265273  .00000050  00000-0  78969-4 0  9990
2 48824  67.0039  55.2903 0096191 211.4665 148.0647 14.02806569657085
Epoch: 2026-09-24T01:15Z
TLE epoch observation values (Epoch: 2026-09-24T01:15:49.195Z)
Latitude
-0.00003°
Longitude
33.44035°
Altitude
945.672 km
Speed
7.349 km/s
True Right ascension
03h 41m 09s
True Declination
0° 00' 00"
Sunlit
Object was in full shadow at epoch
Visualization orbit readout
Latitude
Unknown
Longitude
Unknown
Altitude
Unknown
Speed
Unknown
Apparent Right ascension
Unknown
Apparent Declination
Unknown
Sunlit
N/A
Visualization observer readout
Local Sidereal Time
05:56:54
Azimuth
Unknown
Elevation
Unknown
Doppler factor
Unknown
Orbital elements
Apogee altitude
952.294 km
Perigee altitude
812.613 km
Semi-major axis
7,260.59 km
Eccentricity
0.00962
Inclination
67.0039°
RAAN
55.2903°
Arg. of periapsis
211.4665°
True anomaly
148.64186°
Mean anomaly
148.0647°
Eccentric anomaly
148.35386°
Mean motion
3.50821 °/min
Orbital period
102.62 mins
BSTAR
0.000078969
Loading maneuver chart data...
Computing Atmospheric mass density...

Documentation

Showing up to 5 results
|